{"data":{"norad_id":46142,"epoch":"2026-05-24T19:20:42.365760Z","epoch_age_seconds":90969,"freshness":"FRESH","line1":"1 46142U 20057AB  26144.80604590  .00094993  00000+0  73511-3 0  9993","line2":"2 46142  53.0428 283.6765 0002097  22.2105 337.9002 15.71129117318256","mean_motion":15.71129117,"eccentricity":0.0002097,"inclination_deg":53.0428,"raan_deg":283.6765,"arg_perigee_deg":22.2105,"mean_anomaly_deg":337.9002,"bstar":0.00073511,"rev_number":31825,"period_min":91.653829365063,"perigee_km":354.25675871169,"apogee_km":357.08091688007,"semimajor_km":6733.8058377959,"source":"CELESTRAK","updated_at":"2026-05-25T13:38:16.466931Z"}}